Location: Marcé
(47.5801°N, 0.3280°W)
Time: 10:55:16
(UTC+01:00)

BlueWalker 3 - Pass Details

Date: 03 December 2022
Orbit: 499 x 517 km, 53.2° (Epoch: 29 January)

Event Time Altitude Azimuth Distance (km) Brightness Sun altitude
Rises 19:52:19 0° 295° (WNW) 2,629 6.5 -26.3°
Reaches altitude 10° 19:54:35 10° 301° (WNW) 1,737 5.3 -26.7°
Enters shadow 19:56:35 27° 316° (NW) 1,015 3.8 -27.0°
